Regional Weather Roundup
Issued by NWS

Home | Current Version | Previous Version | Graphics & Text | Print | Product List | Glossary On
Versions: 1 2 3 4 5 6 7 8 9 10 11 12 13 14 15 16 17 18 19 20 21 22 23 24 25 26 27 28 29 30 31 32 33 34 35 36 37 38 39 40 41 42 43 44 45 46 47 48 49 50
000
ASUS45 KPSR 020510
RWRAZ

ARIZONA REGIONAL HOURLY WEATHER ROUNDUP
NATIONAL WEATHER SERVICE PHOENIX AZ
1000 PM MST MON SEP 01 2014

NOTE: FAIR INDICATES FEW OR NO CLOUDS BELOW 12,000 FEET WITH NO
SIGNIFICANT WEATHER AND/OR OBSTRUCTIONS TO VISIBILITY.

AZZ001>003-036-020600-
NORTHWEST ARIZONA

CITY           SKY/WX    TMP DP  RH WIND       PRES   REMARKS
BULLHEAD CITY  CLEAR     93  43  17 CALM      29.72S
KINGMAN        CLEAR     76  38  25 S10       29.95S
$$

AZZ004>008-015-016-018-020600-
NORTH CENTRAL ARIZONA

CITY           SKY/WX    TMP DP  RH WIND       PRES   REMARKS
GRAND CANYON     N/A    N/A N/A N/A MISG        N/A
WILLIAMS       CLEAR     59  41  51 SE5       30.29S
PRESCOTT       CLEAR     69  41  36 S8        30.10S
FLAGSTAFF      CLEAR     55  43  63 CALM      30.26S
PAYSON         CLEAR     72  39  30 VRB3      30.13R
PAGE           CLEAR     86  33  15 SW6       29.97S
$$

AZZ009>014-017-020600-
NORTHEAST ARIZONA

CITY           SKY/WX    TMP DP  RH WIND       PRES   REMARKS
WINSLOW        CLEAR     73  43  33 SW10      30.07S
SAINT JOHNS    CLEAR     72  37  28 SW13      30.13R
WINDOW ROCK    CLEAR     64  33  31 CALM      30.21S
SHOW LOW       CLEAR     64  36  34 S9        30.23R
$$

AZZ023-020600-
GREATER PHOENIX AREA

CITY           SKY/WX    TMP DP  RH WIND       PRES   REMARKS
PHOENIX        CLEAR     95  47  19 CALM      29.75R
BUCKEYE          N/A     84  50  30 CALM      29.76R
LUKE AFB       NOT AVBL
DEER VALLEY    CLEAR     90  41  18 NE10      29.78R
SCOTTSDALE     CLEAR     93  41  16 N3        29.79S
MESA-GATEWAY   CLEAR     88  39  18 CALM      29.79R
$$

AZZ027-028-020600-
SOUTHWEST MARICOPA COUNTY AND PINAL COUNTY

CITY           SKY/WX    TMP DP  RH WIND       PRES   REMARKS
CASA GRANDE    CLEAR     90  41  18 W7        29.80R
$$

AZZ503-504-507>509-020600-
SOUTHEAST ARIZONA

CITY           SKY/WX    TMP DP  RH WIND       PRES   REMARKS
TUCSON         CLEAR     88  47  24 SW5       29.92R
DAVIS-MONTHAN  CLEAR     86  48  27 SW7       29.91R
NOGALES        CLEAR     73  52  47 E8        30.02R
SIERRA VISTA   CLEAR     78  46  32 SW10      30.09R
DOUGLAS        CLEAR     70  48  45 NW6       30.04R
SAFFORD        CLEAR     80  35  19 NW9       29.93R
$$

AZZ020-021-025-026-031-020600-
SOUTHWEST ARIZONA

CITY           SKY/WX    TMP DP  RH WIND       PRES   REMARKS
YUMA           CLEAR     93  55  27 S6        29.69R
$$

CAZ031-033-041-043-047-048-061-020600-
SOUTHERN CALIFORNIA

CITY           SKY/WX    TMP DP  RH WIND       PRES   REMARKS
DOWNTOWN L.A.  CLEAR     72  65  78 CALM      29.82R
L.A. AIRPORT   CLEAR     70  65  84 CALM      29.82R
SAN DIEGO      PTCLDY    70  63  78 S7        29.84R
BURBANK        CLEAR     73  62  68 S5        29.83R
ONTARIO        CLEAR     74  61  63 SW7       29.83R
RIVERSIDE      CLEAR     75  61  61 W3        29.83R
PALM SPRINGS   CLEAR     94  27   9 W8        29.72R
IMPERIAL       CLEAR     89  46  22 W5        29.66R
BLYTHE         CLEAR     94  37  13 W8        29.68R
NEEDLES        CLEAR     93  35  13 SW9       29.73R
$$

NVZ020-UTZ003-020600-
SOUTHERN NEVADA-UTAH

CITY           SKY/WX    TMP DP  RH WIND       PRES   REMARKS
LAS VEGAS      CLEAR     94  35  12 S15       29.77R
SALT LAKE CITY CLEAR     66  33  29 SE9       30.05S
$$

NMZ009-TXZ055-020600-
NEW MEXICO-WEST TEXAS

CITY           SKY/WX    TMP DP  RH WIND       PRES   REMARKS
ALBUQUERQUE    CLEAR     78  39  24 S3        30.08R
EL PASO        CLEAR     88  35  15 W6        29.97S
$$


........................KEY........................
SKY/WX - SKY CONDITION/WEATHER
TMP    - TEMPERATURE IN FAHRENHEIT
DP     - DEW POINT IN FAHRENHEIT
RH     - RELATIVE HUMIDITY IN PERCENT
WIND   - DIRECTION AND SPEED IN MILES PER HOUR (MPH)
VRB    - VARIABLE WIND DIRECTION
PRES   - MEAN SEA LEVEL PRESSURE IN INCHES OF MERCURY
         F - FALLING PRESSURE   R - RISING PRESSURE
         S - STEADY PRESSURE
VSB    - VISIBILITY IN MILES
HX     - HEAT INDEX IN FAHRENHEIT
WCI    - WIND CHILL INDEX IN FAHRENHEIT
TC     - TEMPERATURE IN CELSIUS WHICH IS ALSO KNOWN AS
         TEMPERATURE IN CENTIGRADE
AFB    - AIR FORCE BASE
         LUKE AFB IS LUKE AIR FORCE BASE
         DAVIS-MONTHAN IS DAVIS-MONTHAN AIR FORCE BASE
NAS    - NAVAL AIR STATION
         EL CENTRO NAS IS EL CENTRO NAVAL AIR STATION
N/A    - NOT AVAILABLE


USA.gov is the U.S. government's official web portal to all federal, state and local government web resources and services.